TimeGMT,TemperatureF,Dew PointF,Humidity,Sea Level PressureIn,VisibilityMPH,Wind Direction,Wind SpeedMPH,Gust SpeedMPH,PrecipitationIn,Events,Conditions,WindDirDegrees,DateUTC
12:00 AM,39,38,95,29.91,6,West,6.7,,,,Mist,260,2012-11-30 00:00:00
12:00 AM,39.2,37.4,93,29.89,5.6,West,5.8,-,N/A,,Mostly Cloudy,260,2012-11-30 00:00:00
12:30 AM,37.4,37.4,100,29.89,6.2,WSW,2.3,-,N/A,,Mostly Cloudy,250,2012-11-30 00:30:00
1:00 AM,39.2,37.4,93,29.89,2.8,WSW,3.5,-,N/A,,Mostly Cloudy,250,2012-11-30 01:00:00
1:30 AM,41.0,39.2,93,29.89,0.3,SW,2.3,-,N/A,Fog,Fog,230,2012-11-30 01:30:00
2:00 AM,41.0,39.2,93,9999.90,0.6,WSW,4.6,-,N/A,Fog,Fog,240,2012-11-30 02:00:00
2:30 AM,39.2,39.2,100,29.86,1.0,SSE,3.5,-,N/A,,Mostly Cloudy,160,2012-11-30 02:30:00
3:00 AM,39.2,39.2,100,29.86,3.7,SSE,3.5,-,N/A,,Mostly Cloudy,150,2012-11-30 03:00:00
3:30 AM,39.2,39.2,100,29.86,6.2,SSE,4.6,-,N/A,,Mostly Cloudy,150,2012-11-30 03:30:00
4:00 AM,39.2,39.2,100,29.86,6.2,ESE,5.8,-,N/A,,Mostly Cloudy,120,2012-11-30 04:00:00
4:30 AM,39.2,39.2,100,29.86,6.2,ESE,6.9,-,N/A,,Mostly Cloudy,120,2012-11-30 04:30:00
5:00 AM,39.2,39.2,100,29.83,6.2,ESE,5.8,-,N/A,,Mostly Cloudy,120,2012-11-30 05:00:00
5:30 AM,41.0,41.0,100,29.83,6.2,South,4.6,-,N/A,,Scattered Clouds,170,2012-11-30 05:30:00
6:00 AM,43,42,97,29.83,11,SW,11.2,,,Rain,Light Rain,230,2012-11-30 06:00:00
6:00 AM,42.8,42.8,100,29.83,6.2,SW,11.5,-,N/A,,Scattered Clouds,230,2012-11-30 06:00:00
6:30 AM,42.8,42.8,100,29.80,6.2,SW,9.2,-,N/A,Rain,Light Rain,230,2012-11-30 06:30:00
7:00 AM,44.6,42.8,93,29.80,4.3,SSW,9.2,-,N/A,Rain,Light Rain,210,2012-11-30 07:00:00
7:30 AM,42.8,42.8,100,29.80,6.2,SSW,8.1,-,N/A,Rain,Light Rain,200,2012-11-30 07:30:00
8:00 AM,44.6,44.6,100,29.80,6.2,SW,11.5,-,N/A,,Light Drizzle,230,2012-11-30 08:00:00
8:30 AM,44.6,44.6,100,29.80,5.6,SW,9.2,-,N/A,,Light Drizzle,220,2012-11-30 08:30:00
9:00 AM,44.6,42.8,93,29.80,6.2,SSW,6.9,-,N/A,,Light Drizzle,210,2012-11-30 09:00:00
9:30 AM,44.6,44.6,100,29.80,6.2,SW,9.2,-,N/A,,Mostly Cloudy,230,2012-11-30 09:30:00
10:00 AM,44.6,44.6,100,29.80,5.6,SSW,8.1,-,N/A,Rain,Light Rain Showers,210,2012-11-30 10:00:00
10:30 AM,44.6,44.6,100,29.80,4.3,South,6.9,-,N/A,Rain,Light Rain Showers,190,2012-11-30 10:30:00
11:00 AM,44.6,44.6,100,29.80,4.3,SE,4.6,-,N/A,,Mostly Cloudy,130,2012-11-30 11:00:00
11:30 AM,44.6,44.6,100,29.80,4.3,SE,6.9,-,N/A,,Mostly Cloudy,130,2012-11-30 11:30:00
12:00 PM,47,45,90,29.81,4,ESE,8.9,,,,Mist,110,2012-11-30 12:00:00
12:00 PM,46.4,44.6,93,29.80,4.3,ESE,8.1,-,N/A,,Mostly Cloudy,110,2012-11-30 12:00:00
12:30 PM,44.6,44.6,100,29.80,4.3,East,8.1,-,N/A,,Mostly Cloudy,100,2012-11-30 12:30:00
1:00 PM,46.4,44.6,93,29.80,6.2,East,8.1,-,N/A,,Mostly Cloudy,90,2012-11-30 13:00:00
1:30 PM,46.4,44.6,93,29.83,6.2,East,8.1,-,N/A,,Mostly Cloudy,80,2012-11-30 13:30:00
2:00 PM,46.4,44.6,93,29.83,6.2,ENE,8.1,-,N/A,,Mostly Cloudy,60,2012-11-30 14:00:00
2:30 PM,46.4,44.6,93,29.83,6.2,NE,8.1,-,N/A,,Mostly Cloudy,50,2012-11-30 14:30:00
3:00 PM,46.4,44.6,93,29.86,6.2,NE,6.9,-,N/A,,Mostly Cloudy,50,2012-11-30 15:00:00
3:30 PM,44.6,42.8,93,29.86,6.2,NNE,5.8,-,N/A,,Mostly Cloudy,30,2012-11-30 15:30:00
4:00 PM,44.6,44.6,100,29.89,6.2,North,4.6,-,N/A,,Mostly Cloudy,10,2012-11-30 16:00:00
4:30 PM,44.6,42.8,93,29.89,6.2,NNE,9.2,-,N/A,,Mostly Cloudy,30,2012-11-30 16:30:00
5:00 PM,44.6,42.8,93,29.92,6.2,NNE,9.2,-,N/A,,Mostly Cloudy,20,2012-11-30 17:00:00
5:30 PM,42.8,42.8,100,29.95,5.6,North,10.4,-,N/A,,Mostly Cloudy,360,2012-11-30 17:30:00
6:00 PM,42,42,99,29.96,4,North,8.9,,,Rain,Light Drizzle,10,2012-11-30 18:00:00
6:00 PM,42.8,41.0,93,29.95,3.7,North,9.2,-,N/A,,Light Drizzle,10,2012-11-30 18:00:00
6:30 PM,41.0,41.0,100,29.95,3.7,North,10.4,-,N/A,,Light Drizzle,350,2012-11-30 18:30:00
7:00 PM,41.0,41.0,100,29.98,3.7,North,11.5,-,N/A,,Light Drizzle,350,2012-11-30 19:00:00
7:30 PM,41.0,39.2,93,29.98,3.7,North,11.5,-,N/A,,Mostly Cloudy,350,2012-11-30 19:30:00
8:00 PM,41.0,39.2,93,30.01,3.7,North,8.1,-,N/A,,Mostly Cloudy,360,2012-11-30 20:00:00
8:30 PM,41.0,39.2,93,30.01,3.7,North,8.1,-,N/A,,Mostly Cloudy,350,2012-11-30 20:30:00
9:00 PM,41.0,39.2,93,30.01,3.7,North,8.1,-,N/A,,Mostly Cloudy,360,2012-11-30 21:00:00
9:30 PM,41.0,39.2,93,30.04,5.0,North,11.5,-,N/A,,Mostly Cloudy,10,2012-11-30 21:30:00
10:00 PM,41.0,39.2,93,30.04,3.7,North,9.2,-,N/A,,Mostly Cloudy,360,2012-11-30 22:00:00
10:30 PM,39.2,39.2,100,30.06,3.7,NNW,6.9,-,N/A,,Overcast,340,2012-11-30 22:30:00
11:00 PM,39.2,39.2,100,30.06,2.2,NNW,10.4,-,N/A,,Overcast,330,2012-11-30 23:00:00
11:30 PM,39.2,39.2,100,30.06,2.5,North,5.8,-,N/A,,Overcast,350,2012-11-30 23:30:00